Probability
6 3 3 3 0 0 0 0 0 0 0 0 0 0 0 0 0 0 0 0 0 0 0 0 0 0 0 0 0 0 0 0 0 0 0 0 6 3 3 6 3 3 0
6 6 3 3 0 0 0 0 0 0 0 0 0 0 0 0 0 0 0 0 0 0 0 0 0 0 0 0 0 0 0 0 0 0 0 0 3 3 3 3 3 3 3
6 3 3 0 0 0 0 0 0 0 0 0 0 0 0 0 0 0 0 0 0 0 0 0 0 0 0 0 0 0 0 0 0 0 0 0 0 0 3 3 3 0 0
3 3 3 0 0 0 0 0 0 0 0 0 0 0 0 0 0 0 0 0 0 0 0 0 0 0 0 0 0 0 0 0 0 0 0 0 0 0 3 3 3 0 0
3 3 3 0 0 0 0 0 0 0 0 0 0 0 0 0 0 0 0 0 0 0 0 0 0 0 0 0 0 0 0 0 0 0 0 0 0 0 0 3 0 0 0
3 3 0 0 0 0 0 0 0 0 0 0 0 0 0 0 0 0 0 0 0 0 0 0 0 0 0 0 0 0 0 0 0 0 0 0 0 0 0 0 0 0 0
0 0 0 0 0 0 0 0 0 0 0 0 0 0 0 0 0 0 0 0 0 0 0 0 0 0 0 0 0 0 0 3 0 0 0 0 0 0 0 0 0 0 0
0 0 0 0 0 0 0 0 0 0 0 0 0 0 0 0 0 0 0 0 0 0 0 0 0 0 0 0 0 0 0 0 3 3 0 0 0 0 0 0 0 0 0
0 0 0 0 0 0 0 0 0 0 0 0 0 0 0 0 0 0 0 0 0 0 0 0 0 0 0 0 0 0 0 0 0 0 0 0 0 0 0 0 0 0 0
0 0 0 0 0 0 0 0 0 0 0 0 0 0 0 0 0 0 0 0 0 0 0 0 0 0 0 0 0 0 0 0 0 0 0 0 0 0 0 0 3 0 0
0 0 0 0 0 0 0 0 0 0 0 0 0 0 0 0 0 0 0 0 0 0 0 0 0 0 0 0 0 0 0 0 0 0 0 0 0 0 0 0 3 0 0
0 0 0 0 0 0 0 0 0 0 0 0 0 0 0 0 0 0 0 0 0 0 0 0 0 0 0 0 0 0 0 0 0 0 0 0 0 0 0 0 0 0 0
0 0 0 0 0 0 0 0 0 0 0 0 0 0 0 0 0 0 0 0 0 0 0 0 0 0 0 0 0 0 0 0 0 0 0 0 0 0 0 0 0 0 0
0 0 0 0 0 0 0 0 0 0 0 0 0 0 0 0 0 0 0 0 0 0 0 0 0 0 0 0 0 0 0 0 0 0 0 0 0 0 0 0 0 0 0
0 0 0 0 0 0 0 0 0 0 0 0 0 0 0 0 0 0 0 0 0 0 0 0 0 0 0 0 0 0 0 0 0 0 0 0 0 0 0 0 0 0 0
0 0 0 0 0 0 0 0 0 0 0 0 0 0 0 0 0 0 0 0 0 0 0 0 0 0 0 0 0 0 0 0 0 0 0 0 0 0 0 0 0 0 0
0 0 0 0 0 0 0 0 0 0 0 0 0 0 0 0 0 0 0 0 0 0 0 0 0 0 0 0 0 0 0 0 0 0 0 0 0 0 0 0 0 0 0
0 0 0 0 0 0 0 0 0 0 0 0 0 0 0 0 0 0 0 0 0 0 0 0 0 0 0 0 0 0 0 0 0 0 0 0 0 0 0 0 0 0 0
0 0 0 0 0 0 0 0 0 0 0 0 0 0 0 0 0 0 0 0 0 0 0 0 0 0 0 0 0 0 0 0 0 0 0 0 0 0 0 0 0 0 0
0 0 0 0 0 0 0 0 0 0 0 0 0 0 0 0 0 0 0 0 0 0 0 0 0 0 0 0 0 0 0 0 0 0 0 0 0 0 0 0 0 0 0
0 0 0 0 0 0 0 0 0 0 0 0 0 0 0 0 0 0 0 0 0 0 0 0 0 0 0 0 0 0 0 0 0 0 0 0 0 0 0 0 0 0 0
0 0 0 0 0 0 0 0 0 0 0 0 0 0 0 0 0 0 0 0 0 0 0 0 0 0 0 0 0 0 0 0 0 0 0 0 0 0 0 0 0 0 0
0 0 0 0 0 0 0 0 0 0 0 0 0 0 0 0 0 0 0 0 0 0 0 0 0 0 0 0 0 0 0 0 0 0 0 0 0 0 0 0 0 0 0
0 0 0 0 0 0 0 0 0 0 0 0 0 0 0 0 0 0 0 0 0 0 0 0 0 0 0 0 0 0 0 0 0 0 0 0 0 0 0 0 0 0 0
0 0 0 0 0 0 0 0 0 0 0 0 0 0 0 0 0 0 0 0 0 0 0 0 0 0 0 0 0 0 0 0 0 0 0 0 0 0 0 0 0 0 0
0 0 0 0 0 0 0 0 0 0 0 0 0 0 0 0 0 0 0 0 0 0 0 0 0 0 0 0 0 0 0 0 0 0 0 0 0 0 0 0 0 0 0
Height
5828 5828 5829 5828 5828 5828 5828 5827 5826 5825 5824 5822 5820 5819 5817 5815 5813 5811 5808 5806 5803 5800 5798 5795 5793 5791 5789 5787 5784 5782 5781 5779 5777 5776 5774 5773 5772 5771 5770 5769 5768 5767 5766
5822 5823 5823 5823 5822 5822 5822 5821 5820 5819 5818 5816 5814 5812 5810 5808 5806 5804 5801 5798 5796 5793 5790 5787 5785 5783 5780 5778 5776 5774 5772 5770 5768 5767 5765 5764 5762 5761 5760 5759 5758 5757 5757
5816 5816 5816 5816 5816 5816 5815 5815 5814 5813 5811 5809 5807 5805 5803 5801 5799 5796 5794 5791 5788 5785 5782 5780 5777 5774 5772 5770 5767 5765 5763 5761 5759 5757 5756 5754 5753 5752 5751 5749 5748 5748 5747
5810 5810 5810 5810 5809 5809 5809 5808 5807 5806 5804 5802 5801 5799 5797 5794 5792 5789 5786 5784 5781 5778 5775 5772 5769 5766 5763 5761 5758 5756 5753 5751 5749 5747 5746 5745 5743 5742 5741 5740 5739 5737 5736
5804 5803 5803 5803 5803 5803 5802 5802 5801 5800 5798 5796 5794 5792 5790 5787 5785 5782 5779 5776 5773 5771 5768 5764 5761 5758 5754 5752 5749 5746 5744 5741 5739 5738 5736 5735 5734 5732 5731 5730 5728 5727 5726
5797 5797 5797 5797 5796 5796 5796 5795 5794 5792 5791 5789 5787 5785 5783 5780 5777 5775 5772 5769 5766 5763 5760 5757 5753 5750 5746 5743 5740 5737 5734 5732 5730 5728 5727 5725 5724 5722 5721 5719 5717 5716 5716
5790 5791 5790 5790 5790 5789 5789 5788 5786 5785 5783 5781 5780 5778 5776 5773 5771 5768 5765 5762 5759 5756 5752 5749 5745 5742 5738 5734 5731 5728 5725 5723 5720 5719 5717 5715 5714 5712 5710 5708 5707 5706 5705
5783 5783 5783 5783 5783 5782 5781 5780 5779 5778 5776 5774 5773 5771 5770 5768 5764 5761 5758 5755 5751 5748 5745 5741 5737 5733 5729 5726 5723 5720 5717 5714 5712 5710 5708 5707 5705 5703 5701 5699 5697 5696 5694
5776 5776 5776 5775 5775 5775 5774 5773 5772 5770 5769 5767 5765 5764 5762 5761 5758 5755 5752 5748 5744 5741 5737 5733 5729 5725 5721 5718 5715 5712 5709 5706 5704 5702 5700 5698 5696 5694 5691 5689 5687 5685 5683
5768 5768 5769 5768 5768 5768 5767 5766 5764 5763 5762 5760 5758 5756 5755 5752 5750 5748 5745 5741 5737 5733 5729 5725 5721 5717 5713 5710 5707 5704 5701 5699 5696 5694 5692 5690 5688 5685 5682 5680 5677 5675 5673
5760 5761 5761 5761 5760 5760 5759 5758 5757 5756 5754 5752 5751 5749 5747 5745 5742 5740 5738 5735 5730 5726 5722 5718 5714 5710 5706 5702 5700 5697 5694 5691 5689 5686 5684 5682 5679 5676 5674 5670 5668 5665 5663
5752 5753 5753 5753 5753 5752 5752 5751 5750 5748 5747 5745 5743 5741 5739 5738 5735 5732 5729 5726 5723 5719 5715 5711 5707 5703 5699 5696 5693 5690 5687 5684 5681 5679 5676 5673 5671 5668 5665 5661 5658 5655 5653
5744 5745 5745 5745 5745 5744 5744 5743 5742 5741 5739 5738 5736 5734 5731 5729 5727 5724 5721 5718 5715 5712 5708 5704 5700 5696 5692 5689 5686 5682 5680 5677 5674 5671 5668 5665 5662 5659 5656 5652 5649 5646 5643
5736 5737 5737 5737 5737 5737 5736 5735 5734 5733 5731 5730 5728 5726 5724 5721 5718 5716 5713 5710 5708 5705 5701 5698 5693 5689 5685 5682 5678 5675 5672 5669 5667 5663 5660 5657 5654 5650 5647 5643 5639 5636 5633
5728 5729 5729 5729 5729 5729 5728 5727 5726 5725 5723 5722 5720 5718 5716 5713 5710 5708 5705 5702 5700 5697 5695 5691 5687 5683 5679 5675 5671 5668 5665 5662 5659 5656 5652 5649 5646 5642 5639 5635 5631 5627 5624
5719 5720 5721 5721 5721 5720 5720 5719 5718 5717 5716 5714 5712 5710 5708 5706 5703 5700 5697 5694 5691 5688 5686 5683 5679 5676 5672 5668 5665 5661 5658 5655 5652 5648 5645 5641 5638 5634 5630 5627 5623 5619 5616
5710 5711 5712 5712 5712 5712 5712 5711 5710 5708 5708 5706 5704 5702 5700 5698 5695 5692 5689 5686 5683 5680 5678 5676 5672 5668 5665 5661 5658 5655 5652 5648 5645 5641 5637 5633 5630 5626 5623 5619 5615 5611 5608
5701 5702 5703 5703 5704 5703 5703 5703 5702 5701 5700 5698 5696 5694 5692 5689 5687 5684 5681 5678 5676 5673 5670 5668 5665 5662 5658 5655 5652 5648 5645 5642 5638 5635 5631 5627 5623 5619 5615 5611 5607 5603 5600
5691 5692 5693 5694 5695 5695 5694 5694 5694 5693 5691 5690 5688 5686 5684 5682 5679 5676 5673 5671 5668 5666 5663 5661 5658 5655 5652 5648 5645 5642 5639 5636 5632 5629 5625 5621 5617 5613 5608 5604 5601 5597 5593
5682 5683 5684 5685 5686 5686 5686 5686 5685 5684 5683 5682 5680 5678 5676 5674 5671 5669 5666 5664 5661 5659 5656 5654 5651 5648 5645 5642 5639 5636 5634 5630 5627 5623 5619 5615 5611 5607 5603 5599 5595 5591 5588
5672 5674 5675 5676 5677 5677 5677 5677 5677 5676 5675 5673 5672 5670 5668 5666 5663 5661 5659 5657 5655 5652 5650 5647 5644 5642 5639 5637 5634 5631 5628 5625 5621 5618 5614 5610 5606 5602 5597 5593 5589 5586 5582
5663 5664 5665 5667 5667 5668 5669 5668 5668 5668 5667 5665 5664 5662 5661 5659 5656 5654 5652 5650 5648 5645 5643 5641 5638 5636 5633 5631 5628 5625 5622 5620 5617 5614 5609 5605 5601 5597 5592 5588 5584 5580 5577
5653 5655 5656 5657 5658 5659 5660 5660 5659 5659 5658 5657 5656 5654 5653 5651 5650 5648 5645 5643 5641 5638 5636 5634 5632 5630 5627 5625 5622 5620 5617 5614 5610 5607 5604 5600 5596 5592 5587 5583 5579 5576 5572
5644 5645 5647 5648 5649 5650 5650 5651 5651 5650 5650 5649 5648 5647 5646 5644 5642 5641 5639 5637 5634 5632 5630 5628 5626 5623 5621 5618 5616 5614 5612 5609 5605 5602 5598 5595 5591 5587 5583 5579 5575 5571 5567
5634 5635 5637 5638 5639 5640 5641 5641 5642 5642 5641 5641 5640 5639 5638 5636 5635 5633 5631 5629 5627 5625 5623 5621 5619 5617 5615 5612 5611 5609 5606 5604 5601 5597 5594 5591 5587 5583 5579 5575 5571 5566 5562
5624 5625 5627 5628 5629 5630 5631 5632 5633 5633 5633 5633 5632 5631 5630 5628 5627 5625 5624 5622 5620 5618 5616 5614 5612 5610 5609 5607 5605 5603 5601 5599 5596 5593 5589 5586 5582 5578 5575 5571 5566 5562 5557
Wind_Speed
28 28 28 29 28 28 28 28 28 29 29 30 31 31 32 32 33 34 34 34 34 35 36 35 35 36 36 35 35 34 34 34 35 36 36 37 37 37 37 37 37 37 37
29 29 29 29 29 29 29 29 30 31 31 32 32 32 32 33 34 34 34 35 35 35 35 35 35 35 36 35 35 35 35 36 36 37 37 37 37 38 37 38 38 38 37
29 29 30 30 30 30 30 30 31 32 32 32 32 32 33 34 34 34 35 35 35 35 35 35 35 36 36 36 36 37 37 37 38 38 37 37 37 37 37 37 38 39 39
29 29 30 29 29 29 30 30 31 32 32 32 32 33 33 34 34 34 35 35 34 34 34 35 36 36 37 37 37 37 37 38 38 38 37 36 37 37 37 37 38 38 38
29 29 29 29 29 29 30 31 32 32 33 33 32 32 32 33 33 34 34 34 33 33 34 34 35 35 36 36 37 37 37 37 37 37 36 36 37 37 38 38 38 38 38
30 30 30 30 30 31 31 32 32 33 33 33 32 32 32 32 33 33 33 33 33 34 34 34 34 35 35 35 36 36 37 37 37 36 36 36 37 38 38 39 39 39 38
31 31 32 33 32 32 32 32 32 32 33 32 32 32 32 32 33 33 33 33 34 34 34 34 34 35 34 34 35 35 35 35 36 36 36 36 36 37 37 37 38 38 38
32 33 33 33 33 33 33 33 32 32 32 32 32 31 31 31 32 32 33 34 34 34 35 35 35 36 35 34 34 34 34 34 34 34 34 34 35 35 36 36 36 36 37
33 33 32 33 33 33 33 33 32 32 32 32 32 32 32 32 32 33 33 34 34 34 35 36 35 35 35 34 33 33 32 32 32 32 33 33 34 35 35 36 37 38 37
34 34 33 33 33 33 33 33 32 33 33 32 31 32 32 33 33 33 33 34 35 35 35 35 35 34 34 34 33 32 31 32 32 32 32 33 33 34 35 36 36 36 36
35 34 34 34 33 33 33 33 33 33 33 33 33 33 34 34 34 34 33 33 34 34 34 34 34 33 33 33 32 32 32 32 31 32 32 33 33 34 35 35 35 35 36
35 34 34 34 34 33 34 33 34 34 34 34 35 35 35 35 34 34 33 32 33 33 33 33 32 32 32 32 32 32 32 31 31 31 32 32 33 34 34 34 35 35 35
35 34 33 33 33 33 34 34 34 34 34 34 34 34 34 34 35 34 34 33 33 32 32 32 33 32 32 32 32 32 31 30 31 32 31 31 32 33 33 34 34 35 36
35 34 34 33 33 33 34 34 34 33 33 33 33 33 34 35 34 34 33 33 32 32 32 32 32 32 32 32 32 31 31 30 31 32 31 31 31 32 32 33 34 34 35
36 35 34 34 34 33 33 33 33 32 32 33 33 33 34 33 33 33 33 33 33 32 31 31 31 31 31 31 31 31 31 31 32 32 31 31 32 32 32 33 33 33 33
36 36 35 34 34 34 33 33 33 33 33 32 33 33 33 32 32 33 33 33 33 33 31 30 30 30 31 31 30 30 31 31 32 32 31 31 31 32 31 31 31 32 31
37 36 35 34 34 34 33 33 33 32 33 33 33 33 32 32 32 32 33 32 32 32 31 30 30 30 31 31 31 31 31 31 30 30 29 29 30 30 30 31 31 30 29
37 36 36 35 34 34 33 33 33 32 32 33 33 32 32 32 32 32 32 31 31 31 31 30 30 30 31 31 30 30 30 30 29 28 27 28 29 30 30 30 29 29 28
37 36 36 35 34 33 33 32 32 32 32 32 32 31 31 31 31 31 30 30 30 30 30 30 30 30 30 29 29 29 28 28 28 28 28 29 29 29 29 29 29 28 27
36 36 35 35 34 33 33 32 32 31 31 31 31 31 31 30 30 30 30 29 29 30 30 30 29 29 28 28 27 27 27 27 27 27 28 28 28 28 28 28 27 26 26
37 36 35 34 34 34 33 32 32 31 31 31 31 31 30 31 31 30 29 29 29 29 29 29 28 28 27 27 26 26 26 26 26 26 27 27 27 27 28 27 27 26 27
36 36 35 34 34 34 33 32 32 32 31 31 30 30 30 30 30 30 29 29 29 29 29 28 27 27 27 27 26 25 26 26 26 26 26 26 27 27 26 26 27 27 27
36 36 35 34 34 34 34 33 32 32 31 30 30 30 29 29 29 29 30 30 30 29 29 28 27 27 27 26 25 25 25 26 27 26 26 26 26 26 26 26 26 26 27
35 35 35 35 34 34 34 34 33 32 31 30 30 30 29 29 29 30 30 30 29 28 28 28 27 27 27 26 25 25 25 26 26 25 25 26 26 26 25 26 26 26 27
35 36 36 36 35 34 34 34 33 32 31 31 30 30 29 29 29 29 29 29 29 29 28 28 27 26 26 25 25 24 24 25 25 25 25 26 26 25 25 25 25 27 28
36 36 36 36 36 35 34 34 33 32 31 31 31 30 30 29 29 29 29 29 29 29 28 27 27 27 26 25 25 24 24 24 24 24 25 25 25 25 25 25 26 27 28
Wind_Direction
269 271 273 275 277 278 280 282 284 286 288 290 292 293 294 295 296 296 297 297 297 296 295 294 294 293 292 292 291 290 290 290 288 286 285 284 283 283 283 282 283 283 282
269 271 272 275 276 278 279 281 284 286 288 290 291 292 294 295 296 297 297 297 298 297 296 295 294 293 292 292 292 291 291 289 288 287 286 285 284 284 284 283 282 281 281
269 271 272 274 276 277 279 281 283 286 288 290 291 292 294 296 297 297 298 298 298 297 297 296 294 294 293 293 291 291 290 288 288 288 286 285 284 284 284 282 282 281 281
268 270 271 273 276 277 279 282 284 287 289 291 292 293 294 296 297 297 298 299 299 298 297 296 295 294 293 292 291 291 290 289 289 288 286 285 284 284 284 283 282 281 281
267 270 272 273 275 278 279 281 285 287 289 291 292 293 295 297 297 298 299 299 299 299 299 298 297 296 295 293 292 291 291 290 289 288 287 286 285 285 284 283 282 281 281
266 268 271 275 277 278 281 282 284 286 289 290 291 293 295 296 298 299 299 300 300 300 300 299 299 298 296 295 294 293 292 291 290 289 288 287 286 286 285 284 283 282 280
266 269 272 274 277 280 282 283 284 286 288 289 289 291 293 295 297 297 299 301 301 300 300 300 300 300 299 298 297 296 295 293 291 290 289 288 288 288 287 286 285 284 282
268 270 273 275 276 279 281 283 284 286 288 288 288 289 291 292 295 296 298 300 301 300 301 300 300 301 300 299 298 298 297 295 293 292 291 290 291 290 289 288 286 285 284
267 270 272 274 275 278 281 283 284 285 287 287 287 288 289 291 294 296 298 300 301 302 303 302 302 302 301 301 300 299 299 297 296 295 294 294 295 294 291 289 288 286 285
267 269 271 273 276 278 279 282 284 285 286 287 288 289 291 293 294 297 299 300 301 302 303 302 303 303 303 303 301 301 301 300 297 296 296 296 296 296 294 293 290 289 287
267 269 270 272 275 278 278 281 284 284 286 286 287 289 291 292 295 298 299 301 301 302 303 303 303 303 304 304 302 301 301 301 299 298 298 297 297 297 296 294 293 290 288
266 268 270 273 275 277 278 281 283 284 285 287 288 289 291 293 295 298 299 301 302 302 302 302 303 304 304 304 303 302 302 301 300 300 300 299 299 299 297 296 295 293 290
266 268 270 272 274 276 278 279 282 284 285 287 288 290 292 294 295 297 300 301 302 302 302 301 302 304 304 304 304 303 301 300 300 301 301 301 301 300 299 299 298 295 292
265 267 269 271 273 276 279 280 282 283 284 286 288 289 291 294 296 297 299 300 301 302 302 302 303 304 304 305 304 303 302 301 302 302 301 301 302 301 300 301 300 299 297
263 266 268 270 273 275 278 280 281 284 285 286 289 290 292 294 296 296 297 299 301 302 304 304 303 304 304 305 304 303 303 302 303 304 303 302 303 303 301 302 302 301 300
263 265 267 270 272 274 277 279 281 282 284 287 289 291 292 294 295 296 296 297 300 302 305 305 304 304 305 305 304 304 303 304 305 305 304 304 303 303 303 303 304 302 301
262 264 266 269 272 274 276 278 280 281 284 286 288 290 292 293 295 296 297 298 299 301 303 305 305 305 306 305 304 304 305 306 307 307 307 306 305 304 304 305 306 303 301
262 264 265 268 271 273 275 276 278 281 284 286 288 290 292 293 295 296 298 299 300 301 302 303 303 304 306 305 305 306 306 307 308 309 309 308 308 307 307 307 308 307 304
261 264 265 267 269 272 274 276 278 280 283 285 287 289 291 294 295 297 298 300 301 301 302 302 303 303 305 306 306 307 308 308 308 309 310 310 310 310 310 309 310 309 307
260 263 265 266 267 270 272 275 277 279 282 285 286 288 291 292 295 296 297 298 300 301 301 302 303 303 304 305 307 308 308 308 308 310 311 312 313 311 311 309 310 310 309
259 261 263 264 265 268 271 273 275 278 281 284 285 288 290 291 294 295 295 296 298 300 301 301 302 302 303 305 305 307 308 308 310 312 312 312 313 313 312 311 312 311 312
258 259 261 263 265 267 269 272 275 277 280 284 285 286 288 291 292 292 294 296 297 298 300 300 301 301 303 304 305 306 308 309 311 313 314 316 317 317 315 314 314 315 315
258 259 260 262 265 266 268 271 274 276 279 281 282 284 286 289 291 292 294 295 297 297 298 299 299 299 302 302 302 304 308 311 313 314 316 318 318 318 317 317 316 316 316
258 259 261 262 264 266 267 270 273 275 277 279 281 282 284 286 288 291 293 295 296 297 297 298 299 299 299 300 302 304 307 311 314 315 317 319 319 318 317 317 317 317 317
257 259 260 262 263 265 266 268 271 274 276 277 279 280 282 284 287 289 291 293 294 295 296 298 299 299 299 300 300 302 306 309 312 314 315 317 318 319 318 317 317 318 318
256 258 259 261 262 263 265 268 270 273 274 275 276 278 281 283 285 288 290 291 292 293 293 295 296 297 298 298 299 301 304 308 310 313 315 316 318 319 320 319 318 318 319